No particular awareness of the weather is required.    There are no Weather-warnings


Meteo18 Weather Cam more information Meteo18 Weather Cam


Thunder radar more information blitzortung!


Rain radar more information rain snow radar


Visit our other weather sites:

Template documentation
and downloads

And another site



Weather Underground History page Text

Daily Summary for February 11, 2018 Units:  Both    English   Metric
« Previous Day
Next Day »
Daily Weekly Monthly Yearly Custom
  High: Low: Average:
Temperature: TemperatureC °F /  -17.8 °C 0.4 °F /  -17.6 °C 3.9 °F /  -15.6 °C
Dew Point: DewpointC °F /  -17.8 °C -0.5 °F /  -18.1 °C 2.1 °F /  -16.6 °C
Humidity: Humidity % 62 % 89 %
Wind Speed: WindSpeedKMH mph /  0 km/h - 8.7 mph /  14 km/h
Wind Gust: WindSpeedGustKMH mph /  0 km/h - -
Wind:- - WSW
Pressure: PressurehPa in /  0 hPa 1009.0 in /  34164.7 hPa -
Precipitation: 4.8 in /  121.92 mm    
Historical Graphs
 
 
Tabular Data for February 11, 2018
Time Temperature Dew Point Pressure Wind Wind Speed Wind Gust Humidity Rainfall Rate (Hourly)
TemperatureC °F /  -17.8 °C DewpointC °F /  -17.8 °C PressurehPa in /  0 hPa Calm     Humidity % HourlyPrecipMM in /  0 mm
00:03 0.7 °F /  -17.4 °C -0.5 °F /  -18.1 °C 1016.1 in /  34405.1 hPa SSW 17.7 mph /  28.5 km/h 17.7 mph /  28.5 km/h 92 % 0.0 in /  0 mm
00:09 0.7 °F /  -17.4 °C -0.3 °F /  -17.9 °C 1016.1 in /  34405.1 hPa SW 9.7 mph /  15.6 km/h 17.7 mph /  28.5 km/h 93 % 0.0 in /  0 mm
00:15 0.6 °F /  -17.4 °C -0.4 °F /  -18 °C 1016.1 in /  34405.1 hPa SSW 9.7 mph /  15.6 km/h 16.1 mph /  25.9 km/h 93 % 0.0 in /  0 mm
00:21 0.6 °F /  -17.4 °C -0.3 °F /  -17.9 °C 1015.8 in /  34395 hPa SSW 9.7 mph /  15.6 km/h 19.3 mph /  31.1 km/h 94 % 0.0 in /  0 mm
00:27 0.6 °F /  -17.4 °C -0.3 °F /  -17.9 °C 1015.8 in /  34395 hPa SSW 9.7 mph /  15.6 km/h 17.7 mph /  28.5 km/h 94 % 0.0 in /  0 mm
00:33 0.5 °F /  -17.5 °C -0.4 °F /  -18 °C 1015.8 in /  34395 hPa SW 20.9 mph /  33.6 km/h 20.9 mph /  33.6 km/h 94 % 0.0 in /  0 mm
00:39 0.4 °F /  -17.6 °C -0.3 °F /  -17.9 °C 1015.5 in /  34384.8 hPa SW 7.9 mph /  12.7 km/h 17.7 mph /  28.5 km/h 95 % 0.0 in /  0 mm
00:45 0.4 °F /  -17.6 °C -0.3 °F /  -17.9 °C 1015.1 in /  34371.3 hPa SW 17.7 mph /  28.5 km/h 19.3 mph /  31.1 km/h 95 % 0.0 in /  0 mm
00:51 0.4 °F /  -17.6 °C -0.3 °F /  -17.9 °C 1015.1 in /  34371.3 hPa SSW 13.0 mph /  20.9 km/h 17.7 mph /  28.5 km/h 95 % 0.0 in /  0 mm
00:57 0.4 °F /  -17.6 °C -0.3 °F /  -17.9 °C 1015.1 in /  34371.3 hPa SSW 11.1 mph /  17.9 km/h 16.1 mph /  25.9 km/h 95 % 0.0 in /  0 mm
01:03 0.4 °F /  -17.6 °C -0.3 °F /  -17.9 °C 1015.1 in /  34371.3 hPa SSW 7.9 mph /  12.7 km/h 14.5 mph /  23.3 km/h 95 % 0.3 in /  7.62 mm
01:09 0.4 °F /  -17.6 °C -0.3 °F /  -17.9 °C 1014.8 in /  34361.1 hPa SSW 7.9 mph /  12.7 km/h 14.5 mph /  23.3 km/h 95 % 0.3 in /  7.62 mm
01:15 0.4 °F /  -17.6 °C -0.2 °F /  -17.9 °C 1014.8 in /  34361.1 hPa SSW 16.3 mph /  26.2 km/h 20.9 mph /  33.6 km/h 96 % 0.3 in /  7.62 mm
01:21 0.4 °F /  -17.6 °C -0.2 °F /  -17.9 °C 1014.4 in /  34347.6 hPa SSW 11.1 mph /  17.9 km/h 16.1 mph /  25.9 km/h 96 % 0.3 in /  7.62 mm
01:27 0.5 °F /  -17.5 °C -0.1 °F /  -17.8 °C 1014.4 in /  34347.6 hPa South 9.7 mph /  15.6 km/h 22.5 mph /  36.2 km/h 96 % 0.3 in /  7.62 mm
01:33 0.5 °F /  -17.5 °C -0.1 °F /  -17.8 °C 1014.4 in /  34347.6 hPa SSW 7.9 mph /  12.7 km/h 17.7 mph /  28.5 km/h 96 % 0.3 in /  7.62 mm
01:39 0.6 °F /  -17.4 °C 0.0 °F /  -17.8 °C 1014.4 in /  34347.6 hPa South 11.1 mph /  17.9 km/h 16.1 mph /  25.9 km/h 96 % 0.3 in /  7.62 mm
01:45 0.6 °F /  -17.4 °C 0.0 °F /  -17.8 °C 1014.4 in /  34347.6 hPa SSW 7.9 mph /  12.7 km/h 14.5 mph /  23.3 km/h 96 % 0.3 in /  7.62 mm
01:51 0.6 °F /  -17.4 °C 0.0 °F /  -17.8 °C 1014.1 in /  34337.4 hPa SSW 9.7 mph /  15.6 km/h 14.5 mph /  23.3 km/h 96 % 0.5 in /  12.7 mm
01:57 0.6 °F /  -17.4 °C 0.0 °F /  -17.8 °C 1014.1 in /  34337.4 hPa SSW 9.7 mph /  15.6 km/h 12.9 mph /  20.8 km/h 96 % 0.5 in /  12.7 mm
02:03 0.7 °F /  -17.4 °C 0.1 °F /  -17.7 °C 1013.8 in /  34327.3 hPa SSW 13.0 mph /  20.9 km/h 17.7 mph /  28.5 km/h 96 % 0.5 in /  12.7 mm
02:09 0.7 °F /  -17.4 °C 0.1 °F /  -17.7 °C 1013.8 in /  34327.3 hPa SSW 14.3 mph /  23 km/h 22.5 mph /  36.2 km/h 96 % 0.5 in /  12.7 mm
02:15 0.8 °F /  -17.3 °C 0.2 °F /  -17.7 °C 1013.4 in /  34313.7 hPa SSW 13.0 mph /  20.9 km/h 17.7 mph /  28.5 km/h 96 % 0.5 in /  12.7 mm
02:21 0.8 °F /  -17.3 °C 0.2 °F /  -17.7 °C 1013.4 in /  34313.7 hPa SSW 13.0 mph /  20.9 km/h 20.9 mph /  33.6 km/h 96 % 1.0 in /  25.4 mm
02:27 0.8 °F /  -17.3 °C 0.2 °F /  -17.7 °C 1013.4 in /  34313.7 hPa SSW 13.0 mph /  20.9 km/h 22.5 mph /  36.2 km/h 96 % 1.3 in /  33.02 mm
02:33 0.8 °F /  -17.3 °C 0.2 °F /  -17.7 °C 1013.1 in /  34303.6 hPa SSW 16.3 mph /  26.2 km/h 22.5 mph /  36.2 km/h 96 % 1.5 in /  38.1 mm
02:39 0.9 °F /  -17.3 °C 0.3 °F /  -17.6 °C 1013.1 in /  34303.6 hPa SW 16.3 mph /  26.2 km/h 19.3 mph /  31.1 km/h 96 % 1.5 in /  38.1 mm
02:45 0.9 °F /  -17.3 °C 0.3 °F /  -17.6 °C 1012.8 in /  34293.4 hPa SSW 13.0 mph /  20.9 km/h 19.3 mph /  31.1 km/h 96 % 1.5 in /  38.1 mm
02:51 0.9 °F /  -17.3 °C 0.3 °F /  -17.6 °C 1012.8 in /  34293.4 hPa SSW 11.1 mph /  17.9 km/h 19.3 mph /  31.1 km/h 96 % 1.5 in /  38.1 mm
02:57 1.0 °F /  -17.2 °C 0.4 °F /  -17.6 °C 1012.8 in /  34293.4 hPa SSW 17.7 mph /  28.5 km/h 20.9 mph /  33.6 km/h 96 % 1.5 in /  38.1 mm
03:03 1.1 °F /  -17.2 °C 0.7 °F /  -17.4 °C 1012.4 in /  34279.9 hPa SSW 11.1 mph /  17.9 km/h 17.7 mph /  28.5 km/h 97 % 1.5 in /  38.1 mm
03:09 1.1 °F /  -17.2 °C 0.7 °F /  -17.4 °C 1012.4 in /  34279.9 hPa SSW 11.1 mph /  17.9 km/h 20.9 mph /  33.6 km/h 97 % 1.5 in /  38.1 mm
03:15 1.1 °F /  -17.2 °C 0.7 °F /  -17.4 °C 1012.1 in /  34269.7 hPa SSW 14.3 mph /  23 km/h 22.5 mph /  36.2 km/h 97 % 1.5 in /  38.1 mm
03:21 1.2 °F /  -17.1 °C 0.8 °F /  -17.3 °C 1012.1 in /  34269.7 hPa SW 19.5 mph /  31.4 km/h 22.5 mph /  36.2 km/h 97 % 1.3 in /  33.02 mm
03:27 1.2 °F /  -17.1 °C 0.8 °F /  -17.3 °C 1012.1 in /  34269.7 hPa SSW 19.5 mph /  31.4 km/h 20.9 mph /  33.6 km/h 97 % 1.0 in /  25.4 mm
03:33 1.2 °F /  -17.1 °C 0.8 °F /  -17.3 °C 1011.7 in /  34256.2 hPa SSW 17.7 mph /  28.5 km/h 20.9 mph /  33.6 km/h 97 % 1.0 in /  25.4 mm
03:39 1.2 °F /  -17.1 °C 0.8 °F /  -17.3 °C 1011.7 in /  34256.2 hPa SSW 16.3 mph /  26.2 km/h 20.9 mph /  33.6 km/h 97 % 1.0 in /  25.4 mm
03:45 1.2 °F /  -17.1 °C 0.8 °F /  -17.3 °C 1011.7 in /  34256.2 hPa SSW 13.0 mph /  20.9 km/h 17.7 mph /  28.5 km/h 97 % 0.8 in /  20.32 mm
03:51 1.3 °F /  -17.1 °C 0.9 °F /  -17.3 °C 1011.4 in /  34246 hPa SW 24.1 mph /  38.8 km/h 27.4 mph /  44.1 km/h 97 % 0.8 in /  20.32 mm
03:57 1.3 °F /  -17.1 °C 0.9 °F /  -17.3 °C 1011.4 in /  34246 hPa SW 24.1 mph /  38.8 km/h 24.1 mph /  38.8 km/h 97 % 0.5 in /  12.7 mm
04:03 1.3 °F /  -17.1 °C 0.9 °F /  -17.3 °C 1011.4 in /  34246 hPa South 17.7 mph /  28.5 km/h 24.1 mph /  38.8 km/h 97 % 0.8 in /  20.32 mm
04:09 1.3 °F /  -17.1 °C 0.9 °F /  -17.3 °C 1011.4 in /  34246 hPa SSW 20.9 mph /  33.6 km/h 25.7 mph /  41.4 km/h 97 % 0.5 in /  12.7 mm
04:15 1.3 °F /  -17.1 °C 0.9 °F /  -17.3 °C 1011.4 in /  34246 hPa South 19.5 mph /  31.4 km/h 24.1 mph /  38.8 km/h 97 % 0.5 in /  12.7 mm
04:21 1.3 °F /  -17.1 °C 0.9 °F /  -17.3 °C 1011.1 in /  34235.8 hPa SSW 16.3 mph /  26.2 km/h 24.1 mph /  38.8 km/h 97 % 0.5 in /  12.7 mm
04:27 1.3 °F /  -17.1 °C 0.9 °F /  -17.3 °C 1011.1 in /  34235.8 hPa SSW 13.0 mph /  20.9 km/h 20.9 mph /  33.6 km/h 97 % 0.5 in /  12.7 mm
04:33 1.3 °F /  -17.1 °C 0.9 °F /  -17.3 °C 1010.7 in /  34222.3 hPa SSW 16.3 mph /  26.2 km/h 27.4 mph /  44.1 km/h 97 % 0.5 in /  12.7 mm
04:39 1.4 °F /  -17 °C 1.0 °F /  -17.2 °C 1010.7 in /  34222.3 hPa South 11.1 mph /  17.9 km/h 16.1 mph /  25.9 km/h 97 % 0.5 in /  12.7 mm
04:45 1.4 °F /  -17 °C 1.0 °F /  -17.2 °C 1010.7 in /  34222.3 hPa SW 16.3 mph /  26.2 km/h 17.7 mph /  28.5 km/h 97 % 0.5 in /  12.7 mm
04:51 1.4 °F /  -17 °C 1.0 °F /  -17.2 °C 1010.7 in /  34222.3 hPa SSW 14.3 mph /  23 km/h 16.1 mph /  25.9 km/h 97 % 0.5 in /  12.7 mm
04:57 1.4 °F /  -17 °C 1.0 °F /  -17.2 °C 1010.7 in /  34222.3 hPa South 11.1 mph /  17.9 km/h 14.5 mph /  23.3 km/h 97 % 0.5 in /  12.7 mm
05:03 1.4 °F /  -17 °C 1.0 °F /  -17.2 °C 1010.4 in /  34212.1 hPa SSW 13.0 mph /  20.9 km/h 17.7 mph /  28.5 km/h 97 % 0.5 in /  12.7 mm
05:09 1.5 °F /  -16.9 °C 1.1 °F /  -17.2 °C 1010.4 in /  34212.1 hPa SW 13.0 mph /  20.9 km/h 14.5 mph /  23.3 km/h 97 % 0.5 in /  12.7 mm
05:15 1.5 °F /  -16.9 °C 1.1 °F /  -17.2 °C 1010.4 in /  34212.1 hPa SW 13.0 mph /  20.9 km/h 20.9 mph /  33.6 km/h 97 % 0.5 in /  12.7 mm
05:21 1.5 °F /  -16.9 °C 1.1 °F /  -17.2 °C 1010.4 in /  34212.1 hPa SSW 13.0 mph /  20.9 km/h 19.3 mph /  31.1 km/h 97 % 0.5 in /  12.7 mm
05:27 1.6 °F /  -16.9 °C 1.2 °F /  -17.1 °C 1010.4 in /  34212.1 hPa SSW 7.9 mph /  12.7 km/h 11.3 mph /  18.2 km/h 97 % 0.3 in /  7.62 mm
05:33 1.6 °F /  -16.9 °C 1.2 °F /  -17.1 °C 1010.4 in /  34212.1 hPa SSE 7.9 mph /  12.7 km/h 14.5 mph /  23.3 km/h 97 % 0.3 in /  7.62 mm
05:39 1.6 °F /  -16.9 °C 1.2 °F /  -17.1 °C 1010.0 in /  34198.6 hPa SSW 9.7 mph /  15.6 km/h 16.1 mph /  25.9 km/h 97 % 0.3 in /  7.62 mm
05:45 1.6 °F /  -16.9 °C 1.2 °F /  -17.1 °C 1010.0 in /  34198.6 hPa SSE 7.9 mph /  12.7 km/h 12.9 mph /  20.8 km/h 97 % 0.3 in /  7.62 mm
05:51 1.6 °F /  -16.9 °C 1.2 °F /  -17.1 °C 1010.0 in /  34198.6 hPa SSW 11.1 mph /  17.9 km/h 14.5 mph /  23.3 km/h 97 % 0.5 in /  12.7 mm
05:57 1.6 °F /  -16.9 °C 1.2 °F /  -17.1 °C 1010.0 in /  34198.6 hPa SSW 13.0 mph /  20.9 km/h 14.5 mph /  23.3 km/h 97 % 0.3 in /  7.62 mm
06:03 1.7 °F /  -16.8 °C 1.3 °F /  -17.1 °C 1009.7 in /  34188.4 hPa SW 13.0 mph /  20.9 km/h 14.5 mph /  23.3 km/h 97 % 0.3 in /  7.62 mm
06:09 1.7 °F /  -16.8 °C 1.3 °F /  -17.1 °C 1009.7 in /  34188.4 hPa SSW 7.9 mph /  12.7 km/h 16.1 mph /  25.9 km/h 97 % 0.3 in /  7.62 mm
06:15 1.7 °F /  -16.8 °C 1.3 °F /  -17.1 °C 1010.0 in /  34198.6 hPa SSW 4.7 mph /  7.6 km/h 12.9 mph /  20.8 km/h 97 % 0.3 in /  7.62 mm
06:21 1.7 °F /  -16.8 °C 1.3 °F /  -17.1 °C 1009.7 in /  34188.4 hPa SSW 9.7 mph /  15.6 km/h 14.5 mph /  23.3 km/h 97 % 0.3 in /  7.62 mm
06:27 1.8 °F /  -16.8 °C 1.5 °F /  -16.9 °C 1009.7 in /  34188.4 hPa SSW 14.3 mph /  23 km/h 14.5 mph /  23.3 km/h 98 % 0.3 in /  7.62 mm
06:33 1.8 °F /  -16.8 °C 1.5 °F /  -16.9 °C 1009.7 in /  34188.4 hPa SSW 11.1 mph /  17.9 km/h 14.5 mph /  23.3 km/h 98 % 0.3 in /  7.62 mm
06:39 1.8 °F /  -16.8 °C 1.5 °F /  -16.9 °C 1009.7 in /  34188.4 hPa SSW 6.4 mph /  10.3 km/h 12.9 mph /  20.8 km/h 98 % 0.3 in /  7.62 mm
06:45 1.8 °F /  -16.8 °C 1.5 °F /  -16.9 °C 1009.7 in /  34188.4 hPa SSW 7.9 mph /  12.7 km/h 14.5 mph /  23.3 km/h 98 % 0.3 in /  7.62 mm
06:51 1.9 °F /  -16.7 °C 1.6 °F /  -16.9 °C 1009.7 in /  34188.4 hPa SSW 6.4 mph /  10.3 km/h 14.5 mph /  23.3 km/h 98 % 0.0 in /  0 mm
06:57 1.9 °F /  -16.7 °C 1.6 °F /  -16.9 °C 1009.7 in /  34188.4 hPa SSW 7.9 mph /  12.7 km/h 12.9 mph /  20.8 km/h 98 % 0.3 in /  7.62 mm
07:03 2.0 °F /  -16.7 °C 1.7 °F /  -16.8 °C 1009.4 in /  34178.3 hPa SSW 7.9 mph /  12.7 km/h 9.7 mph /  15.6 km/h 98 % 0.3 in /  7.62 mm
07:09 2.0 °F /  -16.7 °C 1.7 °F /  -16.8 °C 1009.4 in /  34178.3 hPa South 3.2 mph /  5.1 km/h 11.3 mph /  18.2 km/h 98 % 0.3 in /  7.62 mm
07:15 2.0 °F /  -16.7 °C 1.7 °F /  -16.8 °C 1009.4 in /  34178.3 hPa SSW 6.4 mph /  10.3 km/h 11.3 mph /  18.2 km/h 98 % 0.3 in /  7.62 mm
07:21 2.1 °F /  -16.6 °C 1.8 °F /  -16.8 °C 1009.4 in /  34178.3 hPa SSW 6.4 mph /  10.3 km/h 9.7 mph /  15.6 km/h 98 % 0.3 in /  7.62 mm
07:27 2.1 °F /  -16.6 °C 1.8 °F /  -16.8 °C 1009.0 in /  34164.7 hPa SSW 7.9 mph /  12.7 km/h 11.3 mph /  18.2 km/h 98 % 0.3 in /  7.62 mm
07:33 2.1 °F /  -16.6 °C 1.8 °F /  -16.8 °C 1009.0 in /  34164.7 hPa SSW 6.4 mph /  10.3 km/h 9.7 mph /  15.6 km/h 98 % 0.3 in /  7.62 mm
07:39 2.2 °F /  -16.6 °C 1.9 °F /  -16.7 °C 1009.0 in /  34164.7 hPa SSE 4.7 mph /  7.6 km/h 11.3 mph /  18.2 km/h 98 % 0.3 in /  7.62 mm
07:45 2.2 °F /  -16.6 °C 1.9 °F /  -16.7 °C 1009.0 in /  34164.7 hPa SSW 6.4 mph /  10.3 km/h 11.3 mph /  18.2 km/h 98 % 0.3 in /  7.62 mm
07:51 2.3 °F /  -16.5 °C 2.0 °F /  -16.7 °C 1009.0 in /  34164.7 hPa SSW 4.7 mph /  7.6 km/h 9.7 mph /  15.6 km/h 98 % 0.3 in /  7.62 mm
07:57 2.4 °F /  -16.4 °C 2.1 °F /  -16.6 °C 1009.0 in /  34164.7 hPa SW 6.4 mph /  10.3 km/h 16.1 mph /  25.9 km/h 98 % 0.0 in /  0 mm
08:03 2.4 °F /  -16.4 °C 2.1 °F /  -16.6 °C 1009.0 in /  34164.7 hPa SSW 6.4 mph /  10.3 km/h 11.3 mph /  18.2 km/h 98 % 0.0 in /  0 mm
08:09 2.5 °F /  -16.4 °C 2.2 °F /  -16.6 °C 1009.0 in /  34164.7 hPa South 7.9 mph /  12.7 km/h 12.9 mph /  20.8 km/h 98 % 0.0 in /  0 mm
08:15 2.6 °F /  -16.3 °C 2.3 °F /  -16.5 °C 1009.0 in /  34164.7 hPa SSW 4.7 mph /  7.6 km/h 11.3 mph /  18.2 km/h 98 % 0.3 in /  7.62 mm
08:21 2.6 °F /  -16.3 °C 2.3 °F /  -16.5 °C 1009.0 in /  34164.7 hPa SSW 6.4 mph /  10.3 km/h 8.0 mph /  12.9 km/h 98 % 0.3 in /  7.62 mm
08:27 2.7 °F /  -16.3 °C 2.4 °F /  -16.4 °C 1009.0 in /  34164.7 hPa SSW 4.7 mph /  7.6 km/h 9.7 mph /  15.6 km/h 98 % 0.3 in /  7.62 mm
08:33 2.8 °F /  -16.2 °C 2.5 °F /  -16.4 °C 1009.0 in /  34164.7 hPa SSW 6.4 mph /  10.3 km/h 9.7 mph /  15.6 km/h 98 % 0.5 in /  12.7 mm
08:39 2.9 °F /  -16.2 °C 2.6 °F /  -16.3 °C 1009.0 in /  34164.7 hPa SSW 4.7 mph /  7.6 km/h 11.3 mph /  18.2 km/h 98 % 0.5 in /  12.7 mm
08:45 3.1 °F /  -16.1 °C 2.8 °F /  -16.2 °C 1009.0 in /  34164.7 hPa SSW 4.7 mph /  7.6 km/h 9.7 mph /  15.6 km/h 98 % 0.5 in /  12.7 mm
08:51 3.2 °F /  -16 °C 2.9 °F /  -16.2 °C 1009.4 in /  34178.3 hPa SW 6.4 mph /  10.3 km/h 8.0 mph /  12.9 km/h 98 % 0.5 in /  12.7 mm
08:57 3.3 °F /  -15.9 °C 3.0 °F /  -16.1 °C 1009.4 in /  34178.3 hPa Calm   6.4 mph /  10.3 km/h 98 % 0.5 in /  12.7 mm
09:03 3.6 °F /  -15.8 °C 3.3 °F /  -15.9 °C 1009.7 in /  34188.4 hPa SSW 3.2 mph /  5.1 km/h 6.4 mph /  10.3 km/h 98 % 0.5 in /  12.7 mm
09:09 3.7 °F /  -15.7 °C 3.4 °F /  -15.9 °C 1009.7 in /  34188.4 hPa SSW 7.9 mph /  12.7 km/h 11.3 mph /  18.2 km/h 98 % 0.5 in /  12.7 mm
09:15 3.8 °F /  -15.7 °C 3.5 °F /  -15.8 °C 1009.7 in /  34188.4 hPa SW 4.7 mph /  7.6 km/h 9.7 mph /  15.6 km/h 98 % 0.5 in /  12.7 mm
09:21 3.9 °F /  -15.6 °C 3.6 °F /  -15.8 °C 1009.7 in /  34188.4 hPa SW 7.9 mph /  12.7 km/h 9.7 mph /  15.6 km/h 98 % 0.5 in /  12.7 mm
09:27 4.0 °F /  -15.6 °C 3.7 °F /  -15.7 °C 1009.7 in /  34188.4 hPa WSW 7.9 mph /  12.7 km/h 8.0 mph /  12.9 km/h 98 % 0.5 in /  12.7 mm
09:34 4.1 °F /  -15.5 °C 3.8 °F /  -15.7 °C 1009.7 in /  34188.4 hPa SW 1.4 mph /  2.3 km/h 6.4 mph /  10.3 km/h 98 % 0.3 in /  7.62 mm
09:40 4.2 °F /  -15.4 °C 3.9 °F /  -15.6 °C 1009.7 in /  34188.4 hPa SW 3.2 mph /  5.1 km/h 9.7 mph /  15.6 km/h 98 % 0.5 in /  12.7 mm
09:45 4.3 °F /  -15.4 °C 4.0 °F /  -15.6 °C 1010.0 in /  34198.6 hPa WSW 3.2 mph /  5.1 km/h 6.4 mph /  10.3 km/h 98 % 0.3 in /  7.62 mm
09:51 4.3 °F /  -15.4 °C 4.0 °F /  -15.6 °C 1010.0 in /  34198.6 hPa SW 1.4 mph /  2.3 km/h 11.3 mph /  18.2 km/h 98 % 0.3 in /  7.62 mm
09:57 4.4 °F /  -15.3 °C 4.1 °F /  -15.5 °C 1010.0 in /  34198.6 hPa SW 4.7 mph /  7.6 km/h 9.7 mph /  15.6 km/h 98 % 0.3 in /  7.62 mm
10:04 4.4 °F /  -15.3 °C 4.1 °F /  -15.5 °C 1010.0 in /  34198.6 hPa SW 4.7 mph /  7.6 km/h 9.7 mph /  15.6 km/h 98 % 0.3 in /  7.62 mm
10:10 4.4 °F /  -15.3 °C 4.1 °F /  -15.5 °C 1010.0 in /  34198.6 hPa SW 7.9 mph /  12.7 km/h 11.3 mph /  18.2 km/h 98 % 0.3 in /  7.62 mm
10:16 4.4 °F /  -15.3 °C 4.1 °F /  -15.5 °C 1009.7 in /  34188.4 hPa WSW 7.9 mph /  12.7 km/h 14.5 mph /  23.3 km/h 98 % 0.3 in /  7.62 mm
10:22 4.5 °F /  -15.3 °C 4.2 °F /  -15.4 °C 1010.0 in /  34198.6 hPa WSW 7.9 mph /  12.7 km/h 9.7 mph /  15.6 km/h 98 % 0.3 in /  7.62 mm
10:28 4.6 °F /  -15.2 °C 4.3 °F /  -15.4 °C 1009.7 in /  34188.4 hPa WSW 6.4 mph /  10.3 km/h 9.7 mph /  15.6 km/h 98 % 0.3 in /  7.62 mm
10:34 4.7 °F /  -15.2 °C 4.4 °F /  -15.3 °C 1010.0 in /  34198.6 hPa WSW 6.4 mph /  10.3 km/h 8.0 mph /  12.9 km/h 98 % 0.3 in /  7.62 mm
10:40 4.8 °F /  -15.1 °C 4.5 °F /  -15.3 °C 1010.0 in /  34198.6 hPa WSW 6.4 mph /  10.3 km/h 9.7 mph /  15.6 km/h 98 % 0.0 in /  0 mm
10:46 4.9 °F /  -15.1 °C 4.6 °F /  -15.2 °C 1010.0 in /  34198.6 hPa WSW 3.2 mph /  5.1 km/h 9.7 mph /  15.6 km/h 98 % 0.0 in /  0 mm
10:52 4.9 °F /  -15.1 °C 4.6 °F /  -15.2 °C 1010.0 in /  34198.6 hPa WSW 13.0 mph /  20.9 km/h 13.0 mph /  20.9 km/h 98 % 0.0 in /  0 mm
10:58 5.0 °F /  -15 °C 4.7 °F /  -15.2 °C 1010.0 in /  34198.6 hPa West 6.4 mph /  10.3 km/h 8.0 mph /  12.9 km/h 98 % 0.0 in /  0 mm
11:04 5.1 °F /  -14.9 °C 4.8 °F /  -15.1 °C 1010.0 in /  34198.6 hPa WSW 6.4 mph /  10.3 km/h 12.9 mph /  20.8 km/h 98 % 0.0 in /  0 mm
11:10 5.2 °F /  -14.9 °C 4.9 °F /  -15.1 °C 1010.0 in /  34198.6 hPa WSW 11.1 mph /  17.9 km/h 11.3 mph /  18.2 km/h 98 % 0.0 in /  0 mm
11:16 5.2 °F /  -14.9 °C 4.9 °F /  -15.1 °C 1010.0 in /  34198.6 hPa WNW 7.9 mph /  12.7 km/h 14.5 mph /  23.3 km/h 98 % 0.0 in /  0 mm
11:22 5.4 °F /  -14.8 °C 5.1 °F /  -14.9 °C 1010.0 in /  34198.6 hPa West 7.9 mph /  12.7 km/h 11.3 mph /  18.2 km/h 98 % 0.0 in /  0 mm
11:28 5.5 °F /  -14.7 °C 5.2 °F /  -14.9 °C 1010.0 in /  34198.6 hPa West 6.4 mph /  10.3 km/h 8.0 mph /  12.9 km/h 98 % 0.0 in /  0 mm
11:34 5.6 °F /  -14.7 °C 5.2 °F /  -14.9 °C 1010.0 in /  34198.6 hPa WNW 6.4 mph /  10.3 km/h 8.0 mph /  12.9 km/h 97 % 0.0 in /  0 mm
11:40 5.7 °F /  -14.6 °C 5.3 °F /  -14.8 °C 1010.0 in /  34198.6 hPa West 4.7 mph /  7.6 km/h 9.7 mph /  15.6 km/h 97 % 0.0 in /  0 mm
11:46 5.8 °F /  -14.6 °C 5.4 °F /  -14.8 °C 1010.0 in /  34198.6 hPa WSW 3.2 mph /  5.1 km/h 8.0 mph /  12.9 km/h 97 % 0.0 in /  0 mm
11:52 5.8 °F /  -14.6 °C 5.2 °F /  -14.9 °C 1010.0 in /  34198.6 hPa WSW 6.4 mph /  10.3 km/h 11.3 mph /  18.2 km/h 96 % 0.0 in /  0 mm
11:58 5.9 °F /  -14.5 °C 5.2 °F /  -14.9 °C 1010.0 in /  34198.6 hPa WSW 6.4 mph /  10.3 km/h 11.3 mph /  18.2 km/h 95 % 0.0 in /  0 mm
12:04 6.2 °F /  -14.3 °C 5.5 °F /  -14.7 °C 1010.0 in /  34198.6 hPa West 3.2 mph /  5.1 km/h 6.4 mph /  10.3 km/h 95 % 0.0 in /  0 mm
12:10 6.2 °F /  -14.3 °C 5.3 °F /  -14.8 °C 1010.0 in /  34198.6 hPa West 11.1 mph /  17.9 km/h 12.9 mph /  20.8 km/h 94 % 0.0 in /  0 mm
12:16 6.5 °F /  -14.2 °C 5.6 °F /  -14.7 °C 1010.0 in /  34198.6 hPa West 1.4 mph /  2.3 km/h 8.0 mph /  12.9 km/h 94 % 0.0 in /  0 mm
12:22 6.7 °F /  -14.1 °C 5.6 °F /  -14.7 °C 1010.0 in /  34198.6 hPa West 6.4 mph /  10.3 km/h 11.3 mph /  18.2 km/h 93 % 0.0 in /  0 mm
12:28 6.8 °F /  -14 °C 5.6 °F /  -14.7 °C 1010.0 in /  34198.6 hPa West 13.0 mph /  20.9 km/h 16.1 mph /  25.9 km/h 92 % 0.0 in /  0 mm
12:34 6.9 °F /  -13.9 °C 5.4 °F /  -14.8 °C 1010.4 in /  34212.1 hPa WNW 13.0 mph /  20.9 km/h 16.1 mph /  25.9 km/h 90 % 0.0 in /  0 mm
12:40 7.1 °F /  -13.8 °C 5.2 °F /  -14.9 °C 1010.4 in /  34212.1 hPa West 17.7 mph /  28.5 km/h 25.7 mph /  41.4 km/h 88 % 0.0 in /  0 mm
12:46 7.3 °F /  -13.7 °C 5.4 °F /  -14.8 °C 1010.0 in /  34198.6 hPa Calm   9.7 mph /  15.6 km/h 88 % 0.0 in /  0 mm
12:52 7.3 °F /  -13.7 °C 5.3 °F /  -14.8 °C 1010.0 in /  34198.6 hPa WNW 13.0 mph /  20.9 km/h 16.1 mph /  25.9 km/h 87 % 0.0 in /  0 mm
12:58 7.3 °F /  -13.7 °C 5.3 °F /  -14.8 °C 1010.0 in /  34198.6 hPa WNW 4.7 mph /  7.6 km/h 14.5 mph /  23.3 km/h 87 % 0.0 in /  0 mm
13:04 7.3 °F /  -13.7 °C 5.1 °F /  -14.9 °C 1010.4 in /  34212.1 hPa West 13.0 mph /  20.9 km/h 16.1 mph /  25.9 km/h 86 % 0.0 in /  0 mm
13:10 7.4 °F /  -13.7 °C 5.0 °F /  -15 °C 1010.4 in /  34212.1 hPa West 11.1 mph /  17.9 km/h 17.7 mph /  28.5 km/h 85 % 0.0 in /  0 mm
13:16 7.4 °F /  -13.7 °C 4.5 °F /  -15.3 °C 1010.0 in /  34198.6 hPa West 7.9 mph /  12.7 km/h 17.7 mph /  28.5 km/h 82 % 0.0 in /  0 mm
13:22 7.4 °F /  -13.7 °C 4.0 °F /  -15.6 °C 1010.0 in /  34198.6 hPa WNW 13.0 mph /  20.9 km/h 20.9 mph /  33.6 km/h 79 % 0.0 in /  0 mm
13:28 7.3 °F /  -13.7 °C 4.1 °F /  -15.5 °C 1010.0 in /  34198.6 hPa West 1.4 mph /  2.3 km/h 16.1 mph /  25.9 km/h 80 % 0.0 in /  0 mm
13:34 7.6 °F /  -13.6 °C 4.4 °F /  -15.3 °C 1010.0 in /  34198.6 hPa NW 6.4 mph /  10.3 km/h 11.3 mph /  18.2 km/h 80 % 0.0 in /  0 mm
13:40 7.7 °F /  -13.5 °C 4.3 °F /  -15.4 °C 1010.0 in /  34198.6 hPa NW 7.9 mph /  12.7 km/h 17.7 mph /  28.5 km/h 79 % 0.0 in /  0 mm
13:46 7.8 °F /  -13.4 °C 4.2 °F /  -15.4 °C 1010.0 in /  34198.6 hPa WNW 9.7 mph /  15.6 km/h 19.3 mph /  31.1 km/h 78 % 0.0 in /  0 mm
13:52 7.7 °F /  -13.5 °C 3.9 °F /  -15.6 °C 1010.0 in /  34198.6 hPa NNW 6.4 mph /  10.3 km/h 19.3 mph /  31.1 km/h 77 % 0.0 in /  0 mm
13:58 7.7 °F /  -13.5 °C 3.7 °F /  -15.7 °C 1010.0 in /  34198.6 hPa NW 9.7 mph /  15.6 km/h 12.9 mph /  20.8 km/h 76 % 0.0 in /  0 mm
14:04 7.6 °F /  -13.6 °C 3.1 °F /  -16.1 °C 1010.0 in /  34198.6 hPa WNW 14.3 mph /  23 km/h 19.3 mph /  31.1 km/h 73 % 0.0 in /  0 mm
14:10 7.6 °F /  -13.6 °C 2.9 °F /  -16.2 °C 1010.0 in /  34198.6 hPa WNW 7.9 mph /  12.7 km/h 20.9 mph /  33.6 km/h 72 % 0.0 in /  0 mm
14:16 7.6 °F /  -13.6 °C 2.5 °F /  -16.4 °C 1010.0 in /  34198.6 hPa WNW 7.9 mph /  12.7 km/h 20.9 mph /  33.6 km/h 70 % 0.0 in /  0 mm
14:22 7.7 °F /  -13.5 °C 2.6 °F /  -16.3 °C 1010.0 in /  34198.6 hPa West 16.3 mph /  26.2 km/h 20.9 mph /  33.6 km/h 70 % 0.0 in /  0 mm
14:28 7.8 °F /  -13.4 °C 2.1 °F /  -16.6 °C 1010.0 in /  34198.6 hPa WNW 9.7 mph /  15.6 km/h 19.3 mph /  31.1 km/h 67 % 0.0 in /  0 mm
14:34 7.9 °F /  -13.4 °C 2.2 °F /  -16.6 °C 1010.0 in /  34198.6 hPa West 13.0 mph /  20.9 km/h 16.1 mph /  25.9 km/h 67 % 0.0 in /  0 mm
14:40 8.1 °F /  -13.3 °C 3.0 °F /  -16.1 °C 1010.0 in /  34198.6 hPa West 11.1 mph /  17.9 km/h 14.5 mph /  23.3 km/h 70 % 0.0 in /  0 mm
14:46 8.0 °F /  -13.3 °C 2.5 °F /  -16.4 °C 1010.0 in /  34198.6 hPa WNW 11.1 mph /  17.9 km/h 20.9 mph /  33.6 km/h 68 % 0.0 in /  0 mm
14:52 8.1 °F /  -13.3 °C 2.5 °F /  -16.4 °C 1010.0 in /  34198.6 hPa WNW 13.0 mph /  20.9 km/h 14.5 mph /  23.3 km/h 68 % 0.0 in /  0 mm
14:58 8.2 °F /  -13.2 °C 2.6 °F /  -16.3 °C 1010.0 in /  34198.6 hPa WNW 9.7 mph /  15.6 km/h 12.9 mph /  20.8 km/h 68 % 0.0 in /  0 mm
15:04 8.2 °F /  -13.2 °C 2.6 °F /  -16.3 °C 1010.0 in /  34198.6 hPa NW 6.4 mph /  10.3 km/h 9.7 mph /  15.6 km/h 68 % 0.0 in /  0 mm
15:10 8.2 °F /  -13.2 °C 2.4 °F /  -16.4 °C 1010.0 in /  34198.6 hPa NW 13.0 mph /  20.9 km/h 17.7 mph /  28.5 km/h 67 % 0.0 in /  0 mm
15:16 8.3 °F /  -13.2 °C 2.5 °F /  -16.4 °C 1010.0 in /  34198.6 hPa WNW 13.0 mph /  20.9 km/h 14.5 mph /  23.3 km/h 67 % 0.0 in /  0 mm
15:22 8.4 °F /  -13.1 °C 2.8 °F /  -16.2 °C 1010.0 in /  34198.6 hPa WNW 9.7 mph /  15.6 km/h 19.3 mph /  31.1 km/h 68 % 0.0 in /  0 mm
15:28 8.3 °F /  -13.2 °C 2.1 °F /  -16.6 °C 1010.0 in /  34198.6 hPa West 11.1 mph /  17.9 km/h 19.3 mph /  31.1 km/h 65 % 0.0 in /  0 mm
15:34 8.3 °F /  -13.2 °C 2.5 °F /  -16.4 °C 1010.0 in /  34198.6 hPa West 9.7 mph /  15.6 km/h 19.3 mph /  31.1 km/h 67 % 0.0 in /  0 mm
15:40 8.2 °F /  -13.2 °C 1.8 °F /  -16.8 °C 1010.0 in /  34198.6 hPa West 11.1 mph /  17.9 km/h 20.9 mph /  33.6 km/h 64 % 0.0 in /  0 mm
15:46 8.1 °F /  -13.3 °C 1.3 °F /  -17.1 °C 1010.0 in /  34198.6 hPa West 16.3 mph /  26.2 km/h 22.5 mph /  36.2 km/h 62 % 0.0 in /  0 mm
15:52 8.1 °F /  -13.3 °C 1.3 °F /  -17.1 °C 1010.4 in /  34212.1 hPa West 13.0 mph /  20.9 km/h 19.3 mph /  31.1 km/h 62 % 0.0 in /  0 mm
15:58 8.0 °F /  -13.3 °C 1.4 °F /  -17 °C 1010.4 in /  34212.1 hPa WNW 11.1 mph /  17.9 km/h 16.1 mph /  25.9 km/h 63 % 0.0 in /  0 mm
16:04 8.0 °F /  -13.3 °C 1.4 °F /  -17 °C 1010.4 in /  34212.1 hPa West 7.9 mph /  12.7 km/h 19.3 mph /  31.1 km/h 63 % 0.0 in /  0 mm
16:10 7.9 °F /  -13.4 °C 1.5 °F /  -16.9 °C 1010.4 in /  34212.1 hPa West 9.7 mph /  15.6 km/h 12.9 mph /  20.8 km/h 64 % 0.0 in /  0 mm
16:16 7.9 °F /  -13.4 °C 1.7 °F /  -16.8 °C 1010.4 in /  34212.1 hPa West 9.7 mph /  15.6 km/h 11.3 mph /  18.2 km/h 65 % 0.0 in /  0 mm
16:22 7.8 °F /  -13.4 °C 1.6 °F /  -16.9 °C 1010.4 in /  34212.1 hPa West 9.7 mph /  15.6 km/h 22.5 mph /  36.2 km/h 65 % 0.0 in /  0 mm
16:28 7.8 °F /  -13.4 °C 1.2 °F /  -17.1 °C 1010.4 in /  34212.1 hPa West 3.2 mph /  5.1 km/h 16.1 mph /  25.9 km/h 63 % 0.0 in /  0 mm
16:34 7.7 °F /  -13.5 °C 1.1 °F /  -17.2 °C 1010.4 in /  34212.1 hPa WNW 7.9 mph /  12.7 km/h 12.9 mph /  20.8 km/h 63 % 0.0 in /  0 mm
16:40 7.6 °F /  -13.6 °C 1.4 °F /  -17 °C 1010.4 in /  34212.1 hPa WNW 9.7 mph /  15.6 km/h 9.7 mph /  15.6 km/h 65 % 0.0 in /  0 mm
16:46 7.6 °F /  -13.6 °C 1.4 °F /  -17 °C 1010.7 in /  34222.3 hPa WNW 6.4 mph /  10.3 km/h 8.0 mph /  12.9 km/h 65 % 0.0 in /  0 mm
16:52 7.5 °F /  -13.6 °C 1.8 °F /  -16.8 °C 1010.7 in /  34222.3 hPa WNW 9.7 mph /  15.6 km/h 9.7 mph /  15.6 km/h 67 % 0.0 in /  0 mm
16:58 7.4 °F /  -13.7 °C 1.7 °F /  -16.8 °C 1010.7 in /  34222.3 hPa WSW 6.4 mph /  10.3 km/h 9.7 mph /  15.6 km/h 67 % 0.0 in /  0 mm
17:04 7.4 °F /  -13.7 °C 1.7 °F /  -16.8 °C 1010.7 in /  34222.3 hPa WNW 6.4 mph /  10.3 km/h 9.7 mph /  15.6 km/h 67 % 0.0 in /  0 mm
17:10 7.4 °F /  -13.7 °C 1.9 °F /  -16.7 °C 1010.7 in /  34222.3 hPa West 1.4 mph /  2.3 km/h 14.5 mph /  23.3 km/h 68 % 0.0 in /  0 mm
17:16 7.4 °F /  -13.7 °C 1.9 °F /  -16.7 °C 1010.7 in /  34222.3 hPa WNW 6.4 mph /  10.3 km/h 14.5 mph /  23.3 km/h 68 % 0.0 in /  0 mm
17:22 7.3 °F /  -13.7 °C 2.2 °F /  -16.6 °C 1010.7 in /  34222.3 hPa West 11.1 mph /  17.9 km/h 12.9 mph /  20.8 km/h 70 % 0.0 in /  0 mm
17:28 7.2 °F /  -13.8 °C 2.1 °F /  -16.6 °C 1010.7 in /  34222.3 hPa WNW 6.4 mph /  10.3 km/h 6.4 mph /  10.3 km/h 70 % 0.0 in /  0 mm
17:34 7.1 °F /  -13.8 °C 2.2 °F /  -16.6 °C 1011.1 in /  34235.8 hPa WNW 9.7 mph /  15.6 km/h 12.9 mph /  20.8 km/h 71 % 0.0 in /  0 mm
17:40 6.9 °F /  -13.9 °C 2.0 °F /  -16.7 °C 1010.7 in /  34222.3 hPa WNW 19.5 mph /  31.4 km/h 19.5 mph /  31.4 km/h 71 % 0.0 in /  0 mm
17:46 6.9 °F /  -13.9 °C 2.2 °F /  -16.6 °C 1011.1 in /  34235.8 hPa West 6.4 mph /  10.3 km/h 17.7 mph /  28.5 km/h 72 % 0.0 in /  0 mm
17:52 6.7 °F /  -14.1 °C 2.4 °F /  -16.4 °C 1011.1 in /  34235.8 hPa WNW 11.1 mph /  17.9 km/h 37.0 mph /  59.5 km/h 74 % 0.0 in /  0 mm
17:58 6.2 °F /  -14.3 °C 2.6 °F /  -16.3 °C 1011.4 in /  34246 hPa West 13.0 mph /  20.9 km/h 30.6 mph /  49.2 km/h 78 % 0.0 in /  0 mm
18:04 5.2 °F /  -14.9 °C 2.7 °F /  -16.3 °C 1011.1 in /  34235.8 hPa West 14.3 mph /  23 km/h 20.9 mph /  33.6 km/h 84 % 0.3 in /  7.62 mm
18:10 4.9 °F /  -15.1 °C 2.4 °F /  -16.4 °C 1011.1 in /  34235.8 hPa WNW 4.7 mph /  7.6 km/h 17.7 mph /  28.5 km/h 84 % 0.3 in /  7.62 mm
18:16 4.9 °F /  -15.1 °C 2.4 °F /  -16.4 °C 1011.4 in /  34246 hPa WNW 7.9 mph /  12.7 km/h 12.9 mph /  20.8 km/h 84 % 0.3 in /  7.62 mm
18:22 4.8 °F /  -15.1 °C 2.5 °F /  -16.4 °C 1011.4 in /  34246 hPa WNW 3.2 mph /  5.1 km/h 6.4 mph /  10.3 km/h 85 % 0.3 in /  7.62 mm
18:28 4.7 °F /  -15.2 °C 2.4 °F /  -16.4 °C 1011.7 in /  34256.2 hPa WNW 6.4 mph /  10.3 km/h 9.7 mph /  15.6 km/h 85 % 0.3 in /  7.62 mm
18:34 4.7 °F /  -15.2 °C 2.6 °F /  -16.3 °C 1011.7 in /  34256.2 hPa WNW 6.4 mph /  10.3 km/h 12.9 mph /  20.8 km/h 86 % 0.3 in /  7.62 mm
18:40 4.7 °F /  -15.2 °C 2.6 °F /  -16.3 °C 1011.7 in /  34256.2 hPa West 7.9 mph /  12.7 km/h 12.9 mph /  20.8 km/h 86 % 0.3 in /  7.62 mm
18:46 4.9 °F /  -15.1 °C 2.6 °F /  -16.3 °C 1012.1 in /  34269.7 hPa West 14.3 mph /  23 km/h 19.3 mph /  31.1 km/h 85 % 0.3 in /  7.62 mm
18:52 4.9 °F /  -15.1 °C 2.8 °F /  -16.2 °C 1012.1 in /  34269.7 hPa WNW 7.9 mph /  12.7 km/h 24.1 mph /  38.8 km/h 86 % 0.3 in /  7.62 mm
18:58 4.7 °F /  -15.2 °C 2.9 °F /  -16.2 °C 1011.7 in /  34256.2 hPa West 11.1 mph /  17.9 km/h 14.5 mph /  23.3 km/h 88 % 0.3 in /  7.62 mm
19:04 4.5 °F /  -15.3 °C 2.8 °F /  -16.2 °C 1012.1 in /  34269.7 hPa WNW 6.4 mph /  10.3 km/h 9.7 mph /  15.6 km/h 89 % 0.0 in /  0 mm
19:10 4.2 °F /  -15.4 °C 2.5 °F /  -16.4 °C 1012.1 in /  34269.7 hPa WNW 4.7 mph /  7.6 km/h 14.5 mph /  23.3 km/h 89 % 0.3 in /  7.62 mm
19:16 4.0 °F /  -15.6 °C 2.4 °F /  -16.4 °C 1012.1 in /  34269.7 hPa WNW 3.2 mph /  5.1 km/h 8.0 mph /  12.9 km/h 89 % 0.3 in /  7.62 mm
19:22 3.9 °F /  -15.6 °C 2.3 °F /  -16.5 °C 1012.1 in /  34269.7 hPa WNW 1.4 mph /  2.3 km/h 6.4 mph /  10.3 km/h 89 % 0.3 in /  7.62 mm
19:28 3.9 °F /  -15.6 °C 2.3 °F /  -16.5 °C 1012.1 in /  34269.7 hPa WNW 3.2 mph /  5.1 km/h 4.8 mph /  7.7 km/h 89 % 0.3 in /  7.62 mm
19:34 3.8 °F /  -15.7 °C 2.3 °F /  -16.5 °C 1012.4 in /  34279.9 hPa West 1.4 mph /  2.3 km/h 4.8 mph /  7.7 km/h 90 % 0.3 in /  7.62 mm
19:40 3.8 °F /  -15.7 °C 2.3 °F /  -16.5 °C 1012.4 in /  34279.9 hPa WNW 1.4 mph /  2.3 km/h 4.8 mph /  7.7 km/h 90 % 0.3 in /  7.62 mm
19:47 3.7 °F /  -15.7 °C 2.4 °F /  -16.4 °C 1012.4 in /  34279.9 hPa Calm   3.2 mph /  5.1 km/h 91 % 0.3 in /  7.62 mm
19:53 3.8 °F /  -15.7 °C 2.3 °F /  -16.5 °C 1012.4 in /  34279.9 hPa West 1.4 mph /  2.3 km/h 1.6 mph /  2.6 km/h 90 % 0.3 in /  7.62 mm
19:59 3.7 °F /  -15.7 °C 2.4 °F /  -16.4 °C 1012.4 in /  34279.9 hPa Calm     91 % 0.3 in /  7.62 mm
20:05 3.6 °F /  -15.8 °C 2.3 °F /  -16.5 °C 1012.8 in /  34293.4 hPa Calm   1.6 mph /  2.6 km/h 91 % 0.3 in /  7.62 mm
20:11 3.6 °F /  -15.8 °C 2.3 °F /  -16.5 °C 1012.8 in /  34293.4 hPa Calm   1.6 mph /  2.6 km/h 91 % 0.0 in /  0 mm
20:17 3.5 °F /  -15.8 °C 2.3 °F /  -16.5 °C 1012.8 in /  34293.4 hPa WNW 3.2 mph /  5.1 km/h 4.8 mph /  7.7 km/h 92 % 0.0 in /  0 mm
20:23 3.7 °F /  -15.7 °C 2.2 °F /  -16.6 °C 1012.8 in /  34293.4 hPa WNW 4.7 mph /  7.6 km/h 9.7 mph /  15.6 km/h 90 % 0.0 in /  0 mm
20:29 3.8 °F /  -15.7 °C 2.2 °F /  -16.6 °C 1013.1 in /  34303.6 hPa WNW 4.7 mph /  7.6 km/h 8.0 mph /  12.9 km/h 89 % 0.0 in /  0 mm
20:35 3.8 °F /  -15.7 °C 2.2 °F /  -16.6 °C 1013.1 in /  34303.6 hPa Calm   8.0 mph /  12.9 km/h 89 % 0.0 in /  0 mm
20:41 3.8 °F /  -15.7 °C 2.2 °F /  -16.6 °C 1013.1 in /  34303.6 hPa WNW 3.2 mph /  5.1 km/h 9.7 mph /  15.6 km/h 89 % 0.0 in /  0 mm
20:47 3.8 °F /  -15.7 °C 2.2 °F /  -16.6 °C 1013.1 in /  34303.6 hPa WNW 7.9 mph /  12.7 km/h 12.9 mph /  20.8 km/h 89 % 0.0 in /  0 mm
20:53 3.8 °F /  -15.7 °C 2.2 °F /  -16.6 °C 1013.1 in /  34303.6 hPa WNW 7.9 mph /  12.7 km/h 12.9 mph /  20.8 km/h 89 % 0.0 in /  0 mm
20:59 3.8 °F /  -15.7 °C 2.0 °F /  -16.7 °C 1013.4 in /  34313.7 hPa WNW 3.2 mph /  5.1 km/h 12.9 mph /  20.8 km/h 88 % 0.0 in /  0 mm
21:05 3.8 °F /  -15.7 °C 2.0 °F /  -16.7 °C 1013.4 in /  34313.7 hPa WNW 11.1 mph /  17.9 km/h 17.7 mph /  28.5 km/h 88 % 0.0 in /  0 mm
21:11 3.8 °F /  -15.7 °C 2.0 °F /  -16.7 °C 1013.4 in /  34313.7 hPa WNW 4.7 mph /  7.6 km/h 19.3 mph /  31.1 km/h 88 % 0.0 in /  0 mm
21:17 3.8 °F /  -15.7 °C 2.0 °F /  -16.7 °C 1013.4 in /  34313.7 hPa West 7.9 mph /  12.7 km/h 20.9 mph /  33.6 km/h 88 % 0.0 in /  0 mm
21:23 3.8 °F /  -15.7 °C 2.0 °F /  -16.7 °C 1013.4 in /  34313.7 hPa WNW 4.7 mph /  7.6 km/h 14.5 mph /  23.3 km/h 88 % 0.0 in /  0 mm
21:29 3.8 °F /  -15.7 °C 2.0 °F /  -16.7 °C 1013.4 in /  34313.7 hPa WNW 4.7 mph /  7.6 km/h 14.5 mph /  23.3 km/h 88 % 0.0 in /  0 mm
21:35 3.7 °F /  -15.7 °C 1.9 °F /  -16.7 °C 1013.4 in /  34313.7 hPa NW 6.4 mph /  10.3 km/h 11.3 mph /  18.2 km/h 88 % 0.0 in /  0 mm
21:41 3.7 °F /  -15.7 °C 1.9 °F /  -16.7 °C 1013.4 in /  34313.7 hPa NW 7.9 mph /  12.7 km/h 16.1 mph /  25.9 km/h 88 % 0.0 in /  0 mm
21:47 3.7 °F /  -15.7 °C 1.9 °F /  -16.7 °C 1013.4 in /  34313.7 hPa West 3.2 mph /  5.1 km/h 14.5 mph /  23.3 km/h 88 % 0.0 in /  0 mm
21:53 3.7 °F /  -15.7 °C 1.9 °F /  -16.7 °C 1013.4 in /  34313.7 hPa West 1.4 mph /  2.3 km/h 17.7 mph /  28.5 km/h 88 % 0.0 in /  0 mm
21:59 3.6 °F /  -15.8 °C 1.8 °F /  -16.8 °C 1013.4 in /  34313.7 hPa WNW 7.9 mph /  12.7 km/h 12.9 mph /  20.8 km/h 88 % 0.0 in /  0 mm
22:05 3.6 °F /  -15.8 °C 1.8 °F /  -16.8 °C 1013.8 in /  34327.3 hPa WNW 7.9 mph /  12.7 km/h 16.1 mph /  25.9 km/h 88 % 0.0 in /  0 mm
22:11 3.5 °F /  -15.8 °C 1.7 °F /  -16.8 °C 1013.8 in /  34327.3 hPa NW 9.7 mph /  15.6 km/h 12.9 mph /  20.8 km/h 88 % 0.0 in /  0 mm
22:17 3.4 °F /  -15.9 °C 1.6 °F /  -16.9 °C 1013.8 in /  34327.3 hPa WNW 6.4 mph /  10.3 km/h 19.3 mph /  31.1 km/h 88 % 0.0 in /  0 mm
22:23 3.4 °F /  -15.9 °C 1.6 °F /  -16.9 °C 1013.8 in /  34327.3 hPa NW 3.2 mph /  5.1 km/h 17.7 mph /  28.5 km/h 88 % 0.0 in /  0 mm
22:29 3.4 °F /  -15.9 °C 1.6 °F /  -16.9 °C 1013.8 in /  34327.3 hPa West 9.7 mph /  15.6 km/h 11.3 mph /  18.2 km/h 88 % 0.0 in /  0 mm
22:35 3.3 °F /  -15.9 °C 1.5 °F /  -16.9 °C 1014.1 in /  34337.4 hPa West 7.9 mph /  12.7 km/h 8.0 mph /  12.9 km/h 88 % 0.0 in /  0 mm
22:41 3.3 °F /  -15.9 °C 1.5 °F /  -16.9 °C 1014.1 in /  34337.4 hPa West 6.4 mph /  10.3 km/h 11.3 mph /  18.2 km/h 88 % 0.0 in /  0 mm
22:47 3.2 °F /  -16 °C 1.4 °F /  -17 °C 1014.4 in /  34347.6 hPa West 3.2 mph /  5.1 km/h 12.9 mph /  20.8 km/h 88 % 0.0 in /  0 mm
22:53 3.2 °F /  -16 °C 1.6 °F /  -16.9 °C 1014.4 in /  34347.6 hPa West 4.7 mph /  7.6 km/h 9.7 mph /  15.6 km/h 89 % 0.0 in /  0 mm
22:59 3.1 °F /  -16.1 °C 1.3 °F /  -17.1 °C 1014.4 in /  34347.6 hPa WNW 1.4 mph /  2.3 km/h 8.0 mph /  12.9 km/h 88 % 0.0 in /  0 mm
23:05 3.1 °F /  -16.1 °C 1.5 °F /  -16.9 °C 1014.4 in /  34347.6 hPa West 3.2 mph /  5.1 km/h 8.0 mph /  12.9 km/h 89 % 0.0 in /  0 mm
23:11 2.9 °F /  -16.2 °C 1.3 °F /  -17.1 °C 1014.4 in /  34347.6 hPa West 3.2 mph /  5.1 km/h 8.0 mph /  12.9 km/h 89 % 0.0 in /  0 mm
23:17 2.8 °F /  -16.2 °C 1.2 °F /  -17.1 °C 1014.4 in /  34347.6 hPa WNW 7.9 mph /  12.7 km/h 8.0 mph /  12.9 km/h 89 % 0.0 in /  0 mm
23:23 2.8 °F /  -16.2 °C 1.2 °F /  -17.1 °C 1014.4 in /  34347.6 hPa WNW 6.4 mph /  10.3 km/h 11.3 mph /  18.2 km/h 89 % 0.0 in /  0 mm
23:29 2.7 °F /  -16.3 °C 1.1 °F /  -17.2 °C 1014.4 in /  34347.6 hPa WNW 6.4 mph /  10.3 km/h 12.9 mph /  20.8 km/h 89 % 0.0 in /  0 mm
23:35 2.6 °F /  -16.3 °C 1.0 °F /  -17.2 °C 1014.4 in /  34347.6 hPa WNW 7.9 mph /  12.7 km/h 16.1 mph /  25.9 km/h 89 % 0.0 in /  0 mm
23:41 2.5 °F /  -16.4 °C 0.7 °F /  -17.4 °C 1014.4 in /  34347.6 hPa WNW 7.9 mph /  12.7 km/h 17.7 mph /  28.5 km/h 88 % 0.0 in /  0 mm
23:47 2.5 °F /  -16.4 °C 0.7 °F /  -17.4 °C 1014.4 in /  34347.6 hPa WNW 11.1 mph /  17.9 km/h 20.9 mph /  33.6 km/h 88 % 0.0 in /  0 mm
23:53 2.5 °F /  -16.4 °C 0.6 °F /  -17.4 °C 1014.8 in /  34361.1 hPa NW 11.1 mph /  17.9 km/h 17.7 mph /  28.5 km/h 87 % 0.0 in /  0 mm
23:59 2.4 °F /  -16.4 °C 0.5 °F /  -17.5 °C 1014.8 in /  34361.1 hPa WNW 4.7 mph /  7.6 km/h 17.7 mph /  28.5 km/h 87 % 0.0 in /  0 mm
Meteo18
Compliments of Weather Underground - 4 mb

Script developed by  Jim McMurry - jmcmurry@mwt.net Adapted for the template by  Wim van der Kuil - Leuven-Template.eu

You find our weather info also at:

European Weather Network

Weather Underground

Equipment we use:

Weather-station
Davis Vue

Weather-program
Meteobridge

Weather-server
Raspberry PI 2 B+

Provider
1 and 1

Davis Vue

Meteobridge

Raspberry PI 2 B+

1 and 1